Find Hebi-3

NORAD ID: 56156 Int'l Des: 2023-047 Owner: PIESAT Country: CN operational
LEOCIRCULARRETROGRADESSO

現在のビュー

3D地球を読み込み中...

Hebi-3について

説明を読み込み中...

次回通過

Passes for default location (London). Set your location on the main map for personalized predictions.

高度履歴

Loading altitude history...

軌道要素

1 56156U 23047D 26149.45440890 .00003861 00000-0 21451-3 0 9999
2 56156 97.5027 336.8667 0001450 67.7165 292.4220 15.14295042174967
Epoch: May 29, 2026 • Age: 24 hours

現在のステータス

高度 532.3 km
速度 7.60 km/s
衛星直下点 59.95°N, 87.62°W
打ち上げ日 Mar 30, 2023
運用期間 3.1 years
タイプ other

技術仕様

分類 Payload
質量 270.00 kg
乾燥質量 270.00 kg
総質量 270.00 kg
長さ 1.00 m
直径 1.00 m
スパン 4.00 m
形状 Box + 2 Pan
製造者 YINHE
バスタイプ Piesat
フェーズステータス In Orbit
所有者/国 PIESAT/CN

Most Searched